Skip Navigation

Christman Field Latest Observations

Switch to metric unitsOther observation timesWeekly graphs

Date Time
MST
Temp
°F
RH
%
DewPt
°F
Wind
mph
Dir
°
Gust
mph
Dir
°
Press
in Hg
Solar
W/m^2
Prec
in
2021-06-12 18:45 80.0 35.0 49.9 7.5 275 10.6 300 24.883 73.5 0.00
2021-06-12 18:40 80.5 32.9 48.6 4.1 305 6.5 305 24.883 85.9 0.00
2021-06-12 18:35 79.4 38.0 51.6 6.0 344 8.9 309 24.882 98.2 0.00
2021-06-12 18:30 79.0 40.0 52.6 5.4 321 8.6 304 24.880 110.8 0.00
2021-06-12 18:25 80.3 40.4 54.1 6.1 328 8.1 321 24.882 122.8 0.00
2021-06-12 18:20 81.1 35.5 51.2 6.1 320 8.2 310 24.882 135.6 0.00
2021-06-12 18:15 81.3 35.7 51.6 7.0 325 9.3 316 24.880 149.1 0.00
2021-06-12 18:10 82.2 36.4 52.9 8.2 311 9.2 309 24.878 161.8 0.00
2021-06-12 18:05 82.7 37.4 54.1 8.0 300 9.0 294 24.878 174.6 0.00
2021-06-12 18:00 83.8 35.7 53.8 7.1 305 8.5 306 24.877 187.1 0.00
2021-06-12 17:55 84.5 36.2 54.8 5.2 312 6.4 309 24.877 202.8 0.00
2021-06-12 17:50 84.7 32.4 52.0 6.0 302 6.8 307 24.876 219.8 0.00
2021-06-12 17:45 85.4 31.2 51.6 5.3 308 6.4 304 24.877 233.7 0.00
2021-06-12 17:40 85.6 30.0 50.6 4.8 296 6.2 308 24.877 239.9 0.00
2021-06-12 17:35 85.4 25.9 46.6 3.8 313 4.9 307 24.877 151.8 0.00
2021-06-12 17:30 85.0 29.6 49.8 5.3 318 7.4 329 24.877 244.6 0.00
2021-06-12 17:25 84.8 26.8 47.0 6.9 313 7.8 324 24.877 294.3 0.00
2021-06-12 17:20 85.3 27.3 47.9 6.1 327 7.0 324 24.877 308.8 0.00
2021-06-12 17:15 85.6 25.6 46.4 6.3 318 7.3 313 24.877 323.1 0.00
2021-06-12 17:10 85.6 24.1 44.8 6.4 313 7.6 324 24.877 339.9 0.00
2021-06-12 17:05 85.9 23.2 44.2 6.2 330 7.2 328 24.877 357.0 0.00
2021-06-12 17:00 86.8 24.4 46.1 5.7 326 7.6 316 24.879 372.9 0.00
2021-06-12 16:55 87.0 20.3 41.5 4.8 314 6.4 307 24.880 388.8 0.00
2021-06-12 16:50 86.7 24.1 45.8 4.3 304 5.4 287 24.881 404.7 0.00
2021-06-12 16:45 86.4 20.2 40.9 5.6 311 7.3 299 24.882 420.6 0.00
2021-06-12 16:40 86.3 21.6 42.6 6.1 295 7.4 291 24.884 435.1 0.00
2021-06-12 16:35 86.3 20.9 41.7 6.2 274 7.6 258 24.885 450.1 0.00
2021-06-12 16:30 86.3 21.1 41.9 5.8 266 7.8 249 24.886 465.3 0.00
2021-06-12 16:25 86.2 22.0 42.9 6.2 243 8.2 275 24.886 481.2 0.00
2021-06-12 16:20 86.1 21.4 42.2 5.9 271 7.7 283 24.887 496.4 0.00